Lid_Strength_Index
-1 -1 -1 -1 -1 -1 -1 -1 -1 -1 -1 -1 -1 -1 -1 -1 -1 -1 -1 -3 -3 -2 -1 -1 -1 -1 -2 -1 -1 -1 -1 -1 -1 -1 -1 -1 -1 -1 -1 -1 -1 -1 -1
-1 -1 -1 -1 -1 -1 -1 -1 -1 -1 -1 -1 -0 -1 -1 -1 -1 -1 -1 -1 -2 -1 -2 -2 -1 -1 -1 -2 -1 -1 -1 -1 -1 -1 -1 -1 -1 -1 -1 -1 -1 -1 -1
-1 -1 -0 -0 -1 -2 -2 -1 -1 -1 -0 -0 -0 -0 -0 -0 -0 -0 -1 -1 -1 -1 -2 -1 -2 -2 -1 -1 -1 -1 -1 -1 -1 -1 -1 -1 -1 -1 -1 -1 -1 -1 -1
-1 -1 -0 0 -0 -1 -1 -0 -0 0 -0 0 1 0 0 -0 -0 -0 -0 -1 -1 -1 -1 -2 -1 -2 -1 -1 -1 -1 -1 -1 -1 -1 -1 -1 -1 -1 -1 -1 -1 -1 -1
-1 -1 -1 -1 -1 -0 1 2 2 1 1 1 0 0 0 0 0 -0 -0 -1 -1 -1 -1 -2 -2 -2 -2 -2 -1 -1 -1 -1 -1 -1 -1 -1 -1 -1 -1 -1 -1 -0 -1
-1 -1 -0 -1 -1 -0 -0 0 0 0 1 1 1 1 1 0 0 0 -0 -1 -1 -2 -2 -2 -2 -1 -2 -2 -1 -1 -1 -1 -1 -1 -1 -1 -1 -1 -1 -1 -1 -1 -1
-1 -1 -0 -0 -1 0 2 1 1 2 1 1 2 2 1 1 1 0 -0 -0 -1 -1 -2 -1 -1 -1 -1 -2 -1 -1 -1 -1 -1 -1 -1 -1 -1 -2 -1 -1 -1 -1 -1
-1 -1 -1 -0 0 1 3 2 1 1 1 1 3 3 5 3 1 1 0 -0 -1 -1 -1 -1 -1 -2 -2 -1 -2 -2 -2 -2 -1 -1 -1 -1 -1 -1 -1 -1 -1 -1 -1
-1 -1 -1 -1 -0 -0 1 -0 0 1 2 0 1 3 5 6 3 0 0 0 -0 -0 -0 -1 -1 -2 -2 -2 -2 -2 -2 -1 -1 -1 -1 -1 -1 -1 -1 -1 -1 -1 -1
-1 -1 -1 -1 -1 -1 -1 -0 -0 0 1 2 1 1 1 2 4 5 1 1 0 0 -0 -0 -1 -1 -2 -2 -2 -2 -1 -1 -1 -1 -1 -1 -1 -1 -1 -1 -1 -1 -1
-1 -1 -1 -1 -1 -0 -0 -0 -0 0 0 1 2 2 1 2 2 3 5 3 1 0 -0 -0 -1 -1 -2 -2 -1 -2 -1 -1 0 1 0 0 -0 -1 -1 -1 -1 -1 -1
-0 -0 0 -0 -1 -1 -0 -0 -0 0 0 1 1 1 2 3 3 3 4 3 3 1 0 -0 -0 -0 -1 -0 -1 -2 -1 -0 0 1 1 0 1 1 0 -0 0 -0 -1
1 0 -0 -0 -0 0 1 0 -0 -0 0 1 1 1 1 2 2 3 4 4 4 2 1 0 1 1 1 -0 -0 -1 -0 1 1 1 2 1 2 2 2 1 2 1 1
-0 -1 -0 0 1 1 -0 -0 0 1 0 0 0 0 1 1 1 2 3 3 5 4 3 1 0 1 -0 -1 -1 -1 0 0 1 1 2 2 2 2 2 2 2 2 2
0 1 1 1 1 1 1 0 -0 -0 -1 -0 -0 -0 0 1 1 1 2 2 3 5 5 2 2 -1 -1 -1 -1 -1 -1 0 1 1 2 2 2 2 2 2 2 2 2
1 2 1 1 1 0 0 -1 -1 -1 -0 -0 -0 -0 0 0 0 0 0 1 1 3 5 2 1 0 -0 -0 -1 -1 -0 0 1 1 1 2 2 2 2 2 2 2 2
1 2 2 1 0 0 -1 -1 -0 -0 0 -0 -0 0 0 -0 1 1 1 1 1 2 4 2 1 0 0 0 0 -0 0 1 1 1 1 1 2 2 2 3 3 2 2
1 1 1 1 0 -0 -0 0 0 0 1 1 1 1 2 1 1 1 1 1 1 1 3 4 3 2 2 1 1 0 1 1 1 1 1 1 2 3 3 3 3 4 4
1 1 1 1 1 1 1 1 1 2 2 1 1 2 2 1 2 1 1 2 2 2 2 3 4 3 3 2 1 1 1 1 1 0 1 2 3 3 3 3 4 4 5
1 2 1 1 1 1 1 2 3 3 2 2 1 1 1 2 1 1 3 3 3 4 4 4 5 5 4 3 3 3 4 3 3 2 2 2 3 2 3 3 3 4 5
2 2 2 2 2 2 6 5 5 4 3 3 1 1 1 1 1 3 4 4 4 5 5 6 6 6 5 5 5 4 4 4 4 3 3 2 2 2 1 2 2 3 4
2 2 3 3 4 6 9 9 8 6 4 3 2 2 2 2 2 4 5 5 5 6 6 6 6 7 5 5 5 5 6 7 7 3 4 4 3 3 1 1 3 4 5
4 4 4 4 5 5 10 10 9 6 4 2 2 3 3 3 4 6 5 6 5 5 5 5 6 5 6 5 6 7 7 7 6 5 5 6 4 4 2 2 4 6 6
4 4 4 3 6 7 10 10 10 4 3 3 3 4 4 4 7 8 7 4 4 3 4 6 5 5 5 6 7 7 7 7 5 5 4 7 4 3 1 1 4 4 6
4 4 4 4 5 7 10 10 9 5 5 5 5 4 5 6 10 10 7 5 5 5 6 6 7 8 9 9 8 7 7 7 7 6 4 5 5 3 2 1 1 3 5
4 4 5 5 6 6 11 11 10 7 7 8 5 5 9 10 11 11 9 7 8 7 8 5 5 5 6 6 7 6 8 9 7 7 5 6 5 4 5 1 1 1 0